Altus AFB, OK

8:56 AM CDT on October 21, 2019 (GMT -0500)
Altus Air Force Base

Weather History for KLTS - August, 2019

Change the Weather History Date:

Monday, August 5, 2019

  Actual Average Record
Temperature  
Mean Temperature 84 °F -  
Max Temperature 99 °F 94 °F 111 °F (2011)
Min Temperature 69 °F 70 °F 63 °F (2014)
Cooling Degree Days 18    
Growing Degree Days 34 (Base 50)    
Moisture  
Dew Point 64 °F    
Average Humidity 57    
Maximum Humidity 91    
Minimum Humidity 19    
Precipitation  
Precipitation 0.00 in - - ()
Sea Level Pressure  
Sea Level Pressure 29.93 in    
Wind  
Wind Speed 4 mph (SSE)    
Max Wind Speed 12 mph    
Max Gust Speed -    
Visibility 10 miles    
Events      
Averages and records for this station are not official NWS values.
T = Trace of Precipitation, MM = Missing Value Source: NWS Daily Summary

Daily Weather History Graph

Daily Weather History Graph

Search for Another Location

Airport or City:

Astronomy

Aug. 05, 2019 Rise Set
Actual Time 6:50 AM CDT 8:35 PM CDT
Civil Twilight 6:22 AM CDT 9:02 PM CDT
Nautical Twilight 5:49 AM CDT 9:35 PM CDT
Astronomical Twilight 5:14 AM CDT 10:10 PM CDT
Moon 11:56 AM CDT (8/5) No Moon Set
Length of Visible Light 14h 40m
Length of Day
13h 45m
Waxing Crescent, 28% of the Moon is Illuminated
Aug 5
Waxing Crescent
Aug 7
First Quarter
Aug 15
Full
Aug 23
Last Quarter
Aug 30
New

Hourly Weather History & Observations

Time (CDT) Temp. Heat Index Dew Point Humidity Pressure Visibility Wind Dir Wind Speed Gust Speed Precip Events Conditions
12:56 AM 75.0 °F - 65.7 °F 73% 29.98 in 10.0 mi ESE 5.8 mph - N/A   Clear
1:56 AM 73.9 °F - 65.8 °F 76% 29.97 in 10.0 mi ESE 5.8 mph - N/A   Clear
2:56 AM 72.3 °F - 65.8 °F 80% 29.96 in 10.0 mi SE 5.8 mph - N/A   Clear
3:56 AM 71.4 °F - 66.4 °F 84% 29.95 in 10.0 mi Calm Calm - N/A   Clear
4:56 AM 71.8 °F - 66.6 °F 84% 29.95 in 10.0 mi Calm Calm - N/A   Clear
5:56 AM 70.5 °F - 66.7 °F 88% 29.96 in 10.0 mi Calm Calm - N/A   Clear
6:56 AM 69.8 °F - 67.1 °F 91% 29.97 in 10.0 mi Calm Calm - N/A   Clear
7:56 AM 73.8 °F - 69.3 °F 86% 29.99 in 10.0 mi Calm Calm - N/A   Clear
8:56 AM 78.6 °F - 70.3 °F 76% 29.99 in 10.0 mi SSE 3.5 mph - N/A   Partly Cloudy
9:56 AM 83.5 °F 87.7 °F 70.3 °F 64% 29.99 in 10.0 mi South 4.6 mph - N/A   Clear
10:56 AM 87.1 °F 91.3 °F 68.9 °F 55% 29.99 in 10.0 mi Calm Calm - N/A   Scattered Clouds
11:56 AM 89.8 °F 91.4 °F 64.2 °F 43% 29.97 in 10.0 mi Calm Calm - N/A   Mostly Cloudy
12:56 PM 92.5 °F 95.0 °F 65.3 °F 41% 29.96 in 10.0 mi SSE 4.6 mph - N/A   Mostly Cloudy
1:56 PM 93.7 °F 94.5 °F 61.9 °F 35% 29.94 in 10.0 mi South 11.5 mph - N/A   Scattered Clouds
2:56 PM 95.4 °F 94.9 °F 59.0 °F 30% 29.92 in 10.0 mi South 4.6 mph - N/A   Scattered Clouds
3:56 PM 96.6 °F 95.6 °F 57.0 °F 27% 29.90 in 10.0 mi WSW 5.8 mph - N/A   Scattered Clouds
4:56 PM 98.6 °F - 49.1 °F 19% 29.88 in 10.0 mi South 5.8 mph - N/A   Mostly Cloudy
5:56 PM 97.3 °F 95.8 °F 55.6 °F 25% 29.87 in 10.0 mi Variable 6.9 mph - N/A   Mostly Cloudy
6:56 PM 96.4 °F 95.3 °F 56.8 °F 27% 29.86 in 10.0 mi South 6.9 mph - N/A   Mostly Cloudy
7:56 PM 92.1 °F 92.8 °F 62.1 °F 37% 29.86 in 10.0 mi SSE 5.8 mph - N/A   Mostly Cloudy
8:56 PM 85.3 °F 87.1 °F 65.1 °F 51% 29.86 in 10.0 mi SE 8.1 mph - N/A   Partly Cloudy
9:56 PM 83.8 °F 85.1 °F 64.2 °F 51% 29.88 in 10.0 mi ESE 8.1 mph - N/A   Partly Cloudy
11:56 PM 82.4 °F 84.4 °F 66.0 °F 57% 29.90 in 10.0 mi SE 11.5 mph - N/A   Scattered Clouds